Weather reports worldwide

Advertisment
Charleville, France (7075): temperature & dewpoint: 14.10.2018 16:00:00 - 20.10.2018 16:00:00 (CEST)Charleville, France (7075): temperature 5cm: 14.10.2018 16:00:00 - 20.10.2018 16:00:00 (CEST)Charleville, France (7075): temperature -20cm & temperature -100cm: 14.10.2018 16:00:00 - 20.10.2018 16:00:00 (CEST)Charleville, France (7075): wind speed & gusts: 14.10.2018 16:00:00 - 20.10.2018 16:00:00 (CEST)Charleville, France (7075): wind direction: 14.10.2018 16:00:00 - 20.10.2018 16:00:00 (CEST)Charleville, France (7075): reduced air pressure: 14.10.2018 16:00:00 - 20.10.2018 16:00:00 (CEST)Charleville, France (7075): visibility: 14.10.2018 16:00:00 - 20.10.2018 16:00:00 (CEST)Charleville, France (7075): sunshine duration: 14.10.2018 16:00:00 - 20.10.2018 16:00:00 (CEST)Charleville, France (7075): precipitation: 14.10.2018 16:00:00 - 20.10.2018 16:00:00 (CEST)
Date & Time tt [°C] td [°C] tt 5cm [°C] tt -20cm [°C] tt -100cm [°C] ff [km/h] ff [kn] fx [km/h] fx [kn] dd ppp [hPa] vv [km] sd [min] rr [mm]
20.10.2018 16:00:00 - - - - - - - - - - - - - -
20.10.2018 15:00:00 16,8 7,2 19,1 13,2 14,8 8 5 22 12 NNE 1030,0 20 60 0,0
20.10.2018 14:00:00 16,1 7,8 19,3 13,2 14,8 10 5 22 12 N 1030,5 20 60 0,0
20.10.2018 13:00:00 15,4 7,9 18,2 13,1 14,8 11 6 26 14 NNE 1030,8 19 60 0,0
20.10.2018 12:00:00 13,5 7,9 17,5 13,2 14,8 5 3 12 6 WNW 1031,1 13 56 0,0
20.10.2018 11:00:00 10,7 9,0 10,6 13,3 14,8 3 2 12 6 WNW 1031,0 8 60 0,0
20.10.2018 10:00:00 6,2 5,9 3,1 13,4 14,9 7 4 13 7 NW 1031,0 3,7 60 0,0
20.10.2018 09:00:00 2,4 2,0 1,2 13,5 14,9 2 1 16 8 SSE 1030,8 2,6 25 0,0
20.10.2018 08:00:00 1,5 1,1 0,9 13,6 14,8 11 6 15 8 WNW 1030,0 0,6 0 0,0
20.10.2018 07:00:00 2,2 1,8 0,8 13,7 14,9 4 2 8 4 WNW 1029,5 0,1 0 0,0
20.10.2018 06:00:00 1,5 1,1 -0,3 13,8 14,8 1 1 5 3 WSW 1029,0 0,1 0 0,0
20.10.2018 05:00:00 2,1 1,7 -0,7 13,9 14,8 3 1 9 5 W 1028,8 0,5 0 0,0
20.10.2018 04:00:00 3,9 3,5 0,0 14,0 14,8 6 3 11 6 WNW 1028,3 1,2 0 0,0
20.10.2018 03:00:00 3,5 3,1 -0,1 14,1 14,9 1 1 5 3 ENE 1027,7 0,1 0 0,0
20.10.2018 02:00:00 4,2 3,6 0,0 14,2 14,9 3 1 4 2 W 1027,6 6 0 0,0
20.10.2018 01:00:00 5,2 4,3 1,7 14,2 14,8 4 2 9 5 WNW 1027,4 0,6 0 0,0
20.10.2018 00:00:00 6,6 5,4 3,3 14,3 14,9 1 1 6 4 SSW 1026,8 1,9 0 0,0
19.10.2018 23:00:00 9,2 7,3 5,9 14,3 14,9 3 2 9 5 S 1026,1 6 0 0,0
19.10.2018 22:00:00 11,8 8,5 8,9 14,3 14,8 5 3 14 8 NNW 1025,7 9 0 0,0
19.10.2018 21:00:00 12,5 9,3 8,9 14,3 14,9 3 1 13 7 W 1025,4 9 0 0,0
19.10.2018 20:00:00 13,9 9,7 11,4 14,2 14,9 6 3 16 9 WNW 1024,8 12 0 0,0
19.10.2018 19:00:00 14,9 10,3 12,8 14,2 14,9 6 3 21 11 NW 1023,6 14 12 0,0
19.10.2018 18:00:00 16,9 11,0 16,4 14,0 14,9 10 6 24 13 NNW 1023,0 19 60 0,0
19.10.2018 17:00:00 18,4 11,0 20,1 13,9 14,8 13 7 24 13 NNW 1022,2 20 60 0,0
19.10.2018 16:00:00 19,0 11,1 22,7 13,8 14,8 12 7 22 12 NNW 1022,3 19 60 0,0
19.10.2018 15:00:00 19,2 11,2 25,4 13,6 14,8 - - - - - 1022,6 18 60 0,0
19.10.2018 14:00:00 18,6 11,2 24,9 13,6 14,8 3 2 11 6 NNE 1022,7 18 60 0,0
19.10.2018 13:00:00 17,3 10,4 22,3 13,6 14,8 5 3 16 8 ESE 1023,3 18 60 0,0
19.10.2018 12:00:00 16,0 9,9 20,0 13,6 14,8 5 3 12 6 E 1023,6 15 60 0,0
19.10.2018 11:00:00 13,4 10,7 14,7 13,7 14,8 3 1 9 5 W 1024,1 11 60 0,0
19.10.2018 10:00:00 9,0 8,7 4,5 13,8 14,9 2 1 5 3 SSW 1024,3 6 55 0,0
19.10.2018 09:00:00 4,0 3,6 0,1 13,9 14,9 4 2 7 4 NW 1024,1 7 0 0,0
19.10.2018 08:00:00 3,4 3,0 0,5 14,0 14,9 2 1 4 2 WNW 1023,5 1,0 0 0,0
19.10.2018 07:00:00 3,6 3,2 1,3 14,1 14,9 3 2 5 3 W 1023,4 0,6 0 0,0
19.10.2018 06:00:00 4,3 3,7 2,4 14,2 14,9 2 1 5 3 NW 1023,3 0,1 0 0,0
19.10.2018 05:00:00 5,4 5,0 1,8 14,3 14,9 3 1 8 4 W 1023,5 1,7 0 0,0
19.10.2018 04:00:00 5,4 4,4 2,7 14,4 14,9 2 1 9 5 W 1023,6 0,2 0 0,0
19.10.2018 03:00:00 7,7 6,9 3,6 14,4 14,9 1 1 7 4 W 1023,2 1,5 0 0,0
19.10.2018 02:00:00 9,2 7,8 5,1 14,5 14,9 3 1 13 7 ESE 1023,6 2,6 0 0,0
19.10.2018 01:00:00 10,7 8,8 7,4 14,5 14,9 5 3 17 9 ENE 1023,5 6 0 0,0
19.10.2018 00:00:00 10,7 9,3 6,8 14,6 14,9 5 3 16 9 NE 1023,3 6 0 0,0
18.10.2018 23:00:00 11,1 9,2 7,1 14,6 14,9 3 2 18 10 NNW 1023,4 4,5 0 0,0
18.10.2018 22:00:00 12,4 9,2 10,0 14,7 14,9 5 3 23 13 ESE 1023,1 6 0 0,0
18.10.2018 21:00:00 13,3 9,9 9,9 14,7 14,8 10 5 18 10 NE 1022,8 6 0 0,0
18.10.2018 20:00:00 13,3 9,9 11,1 14,7 14,9 6 4 21 11 NE 1022,5 7 0 0,0
18.10.2018 19:00:00 14,2 10,0 12,7 14,6 14,9 9 5 30 16 NE 1022,1 9 10 0,0
18.10.2018 18:00:00 15,5 10,7 15,0 14,6 14,9 14 8 31 17 NE 1021,8 12 60 0,0
18.10.2018 17:00:00 16,1 11,3 16,8 14,5 14,9 21 11 41 22 NE 1021,9 10 38 0,0
18.10.2018 16:00:00 16,5 11,6 17,1 14,4 14,9 16 9 35 19 NNE 1022,0 7 25 0,0
18.10.2018 15:00:00 16,8 12,3 18,9 14,4 14,9 21 12 37 20 N 1021,9 7 52 0,0
18.10.2018 14:00:00 18,0 12,0 21,2 14,3 14,9 21 11 31 17 NNE 1022,0 8 60 0,0
18.10.2018 13:00:00 18,2 12,4 21,7 14,3 14,9 18 10 31 17 NE 1021,9 10 60 0,0
18.10.2018 12:00:00 17,6 12,1 18,2 14,2 14,9 16 9 28 15 NE 1022,1 10 60 0,0
18.10.2018 11:00:00 15,7 11,9 15,2 14,3 14,9 13 7 29 15 NE 1022,4 6 32 0,0
18.10.2018 10:00:00 14,6 12,1 14,2 14,3 14,9 6 4 14 8 ENE 1022,6 6 0 0,0
18.10.2018 09:00:00 14,0 11,9 12,7 14,3 14,9 4 2 12 7 SW 1022,0 4,8 0 0,0
18.10.2018 08:00:00 13,7 11,6 12,9 14,3 14,9 5 3 22 12 NNW 1021,7 4,2 0 0,0
18.10.2018 07:00:00 13,9 11,9 12,6 14,3 14,9 8 4 21 12 N 1021,3 3,9 0 0,0
18.10.2018 06:00:00 13,9 11,9 12,8 14,4 14,9 10 5 17 9 N 1021,2 3,9 0 0,0
18.10.2018 05:00:00 13,6 11,8 11,1 14,4 14,9 7 4 16 9 NW 1021,0 3,5 0 0,0
18.10.2018 04:00:00 13,2 11,8 11,7 14,4 14,9 11 6 18 10 NNW 1020,8 3,4 0 0,0
18.10.2018 03:00:00 13,8 11,8 10,2 14,5 14,9 13 7 24 13 NNW 1020,7 4,3 0 0,0
18.10.2018 02:00:00 13,0 11,9 9,2 14,5 14,9 8 4 13 7 NNW 1020,5 3,9 0 0,0
18.10.2018 01:00:00 13,7 11,7 11,7 14,5 14,9 6 4 20 11 NW 1020,5 5 0 0,0
18.10.2018 00:00:00 13,7 12,1 10,5 14,6 14,9 3 1 10 6 SSW 1020,6 6 0 0,0
17.10.2018 23:00:00 13,3 11,5 10,6 14,6 14,9 3 2 10 5 WNW 1020,4 6 0 0,0
17.10.2018 22:00:00 14,3 11,8 11,4 14,6 14,9 4 2 17 9 SW 1020,2 8 0 0,0
17.10.2018 21:00:00 15,6 11,8 11,3 14,5 14,9 2 1 12 6 W 1019,6 14 0 0,0
17.10.2018 20:00:00 14,7 10,9 10,8 14,5 14,9 4 2 12 6 WNW 1019,1 20 0 0,0
17.10.2018 19:00:00 18,2 11,3 15,8 14,3 14,9 8 4 18 10 N 1018,2 20 0 0,0
17.10.2018 18:00:00 20,2 12,2 18,8 14,2 14,9 10 5 19 11 N 1017,8 20 44 0,0
17.10.2018 17:00:00 22,9 11,9 24,9 14,1 14,9 7 4 13 7 W 1017,4 20 60 0,0
17.10.2018 16:00:00 24,2 11,8 27,9 13,9 14,9 1 1 9 5 NNW 1017,4 20 60 0,0
17.10.2018 15:00:00 22,7 11,7 28,3 13,7 14,8 4 2 9 5 NW 1017,8 20 60 0,0
17.10.2018 14:00:00 22,4 12,3 25,6 13,7 14,9 3 2 12 6 SSE 1018,3 18 60 0,0
17.10.2018 13:00:00 19,5 11,3 23,5 13,7 14,8 7 4 13 7 SSE 1019,0 14 60 0,0
17.10.2018 12:00:00 16,2 11,1 19,0 13,7 14,9 3 2 7 4 S 1019,6 15 60 0,0
17.10.2018 11:00:00 12,3 10,5 13,3 13,8 14,9 4 2 8 4 SE 1020,0 10 60 0,0
17.10.2018 10:00:00 8,0 7,7 5,4 13,9 14,9 3 1 5 3 W 1020,3 7 40 0,0
17.10.2018 09:00:00 5,0 4,7 2,5 14,0 14,9 3 2 5 3 WNW 1020,4 3,3 0 0,0
17.10.2018 08:00:00 4,1 3,7 2,5 14,1 14,9 5 3 8 4 NW 1020,3 0,5 0 0,0
17.10.2018 07:00:00 4,0 3,6 2,3 14,2 14,9 2 1 7 4 ENE 1020,0 0,2 0 0,0
17.10.2018 06:00:00 4,8 4,4 3,0 14,3 14,9 2 1 10 5 SSE 1019,9 0,2 0 0,0
17.10.2018 05:00:00 4,9 4,5 2,7 14,3 14,9 4 2 9 5 W 1019,7 0,5 0 0,0
17.10.2018 04:00:00 4,6 4,2 3,1 14,4 14,9 3 1 4 2 SSE 1019,8 0,1 0 0,0
17.10.2018 03:00:00 5,8 5,4 2,2 14,5 14,9 5 3 8 4 WNW 1019,9 0,3 0 0,0
17.10.2018 02:00:00 5,5 5,1 2,2 14,6 14,9 1 0 4 2 E 1020,0 0,2 0 0,0
17.10.2018 01:00:00 6,7 6,3 2,6 14,7 14,9 2 1 9 5 W 1020,2 0,9 0 0,0
17.10.2018 00:00:00 7,2 6,6 3,6 14,7 14,9 5 3 7 4 W 1020,3 5 0 0,0
16.10.2018 23:00:00 6,9 5,5 3,7 14,7 14,9 1 1 5 3 N 1020,3 0,3 0 0,0
16.10.2018 22:00:00 9,5 8,4 5,4 14,8 14,9 3 2 7 4 NW 1020,0 13 0 0,0
16.10.2018 21:00:00 10,4 9,2 6,1 14,8 14,9 3 1 5 3 S 1019,5 10 0 0,0
16.10.2018 20:00:00 12,8 9,4 8,6 14,7 14,9 1 1 4 2 SSW 1019,2 20 0 0,0
16.10.2018 19:00:00 15,9 11,5 11,3 14,6 14,9 2 1 7 4 E 1018,5 19 7 0,0
16.10.2018 18:00:00 23,4 10,8 21,2 14,4 14,9 3 1 10 6 SW 1017,7 20 52 0,0
16.10.2018 17:00:00 23,6 9,6 24,1 14,3 14,9 8 5 21 11 SSE 1017,7 20 60 0,0
16.10.2018 16:00:00 24,5 9,6 27,6 14,2 14,9 10 5 22 12 SE 1017,7 20 60 0,0
16.10.2018 15:00:00 23,9 11,2 28,3 14,1 14,9 10 5 21 12 SE 1017,7 20 60 0,0
16.10.2018 14:00:00 23,5 11,5 26,9 14,0 14,8 8 4 18 10 SSE 1018,0 20 60 0,0
16.10.2018 13:00:00 21,3 11,0 26,8 14,0 14,9 9 5 19 10 SE 1018,4 20 60 0,0
16.10.2018 12:00:00 17,3 11,3 20,7 14,0 14,9 3 2 6 4 ENE 1018,9 19 60 0,0
16.10.2018 11:00:00 12,8 10,2 10,9 14,1 14,9 2 1 5 3 NE 1019,1 13 46 0,0
16.10.2018 10:00:00 8,1 7,7 6,9 14,2 14,9 1 0 4 2 S 1019,4 9 25 0,0
16.10.2018 09:00:00 4,8 4,4 2,1 14,3 14,9 1 1 3 2 SSE 1019,5 8 20 0,0
16.10.2018 08:00:00 4,1 3,7 0,8 14,4 14,9 1 0 3 1 WNW 1019,0 18 0 0,0
16.10.2018 07:00:00 4,1 3,7 1,5 14,6 14,9 2 1 6 3 SSW 1018,7 2,5 0 0,0
16.10.2018 06:00:00 4,5 4,1 1,5 14,7 14,9 2 1 4 2 SW 1018,4 10 0 0,0
16.10.2018 05:00:00 4,9 4,5 1,6 14,7 14,9 2 1 3 2 N 1018,1 0,5 0 0,0
16.10.2018 04:00:00 5,4 4,8 2,5 14,9 14,9 1 1 6 3 SW 1018,1 3,9 0 0,0
16.10.2018 03:00:00 5,8 5,4 2,5 15,0 14,9 1 1 5 3 NE 1018,1 1,4 0 0,0
16.10.2018 02:00:00 6,4 5,8 2,8 15,1 14,9 1 1 3 2 W 1017,5 15 0 0,0
16.10.2018 01:00:00 7,2 6,6 3,2 15,2 14,9 1 0 4 2 S 1017,1 1,5 0 0,0
16.10.2018 00:00:00 7,9 7,1 4,0 15,2 14,9 1 0 3 2 NW 1016,8 11 0 0,0
15.10.2018 23:00:00 8,3 6,9 4,6 15,3 14,9 1 1 5 3 WSW 1016,6 12 0 0,0
15.10.2018 22:00:00 9,4 7,5 5,3 15,3 14,8 2 1 3 2 WNW 1016,0 15 0 0,0
15.10.2018 21:00:00 10,1 7,9 6,3 15,3 14,8 1 1 3 1 SSE 1015,6 16 0 0,0
15.10.2018 20:00:00 13,2 9,3 7,9 15,3 14,9 1 1 4 2 W 1015,0 16 0 0,0
15.10.2018 19:00:00 16,8 10,2 11,2 15,1 14,8 2 1 5 3 SSW 1014,1 19 14 0,0
15.10.2018 18:00:00 22,0 11,4 19,8 15,0 14,8 5 3 14 8 SSE 1013,1 20 56 0,0
15.10.2018 17:00:00 24,1 9,3 24,6 14,9 14,8 6 4 19 11 SSE 1012,6 20 60 0,0
15.10.2018 16:00:00 24,7 9,4 27,4 14,8 14,8 8 4 23 12 S 1012,3 20 60 0,0
15.10.2018 15:00:00 24,4 8,4 27,9 14,7 14,8 13 7 25 14 SSW 1012,4 20 60 0,0
15.10.2018 14:00:00 23,4 10,8 26,1 14,6 14,8 8 4 25 13 E 1012,4 20 56 0,0
15.10.2018 13:00:00 22,4 9,5 24,1 14,6 14,9 11 6 23 12 SSE 1012,7 20 55 0,0
15.10.2018 12:00:00 21,1 10,9 20,8 14,6 14,8 16 9 26 14 E 1012,5 20 41 0,0
15.10.2018 11:00:00 18,8 9,8 18,2 14,6 14,8 11 6 17 9 E 1012,5 20 19 0,0
15.10.2018 10:00:00 17,1 9,5 16,9 14,6 14,8 11 6 18 10 ESE 1012,6 20 27 0,0
15.10.2018 09:00:00 17,6 10,0 14,7 14,6 14,8 12 7 16 9 ESE 1011,7 20 33 0,0
15.10.2018 08:00:00 16,0 9,9 14,2 14,7 14,9 11 6 14 8 E 1011,4 20 0 0,0
15.10.2018 07:00:00 16,5 9,9 13,8 14,7 14,8 7 4 11 6 E 1010,7 20 0 0,0
15.10.2018 06:00:00 15,9 9,3 12,2 14,8 14,9 5 3 14 8 E 1010,6 20 0 0,0
15.10.2018 05:00:00 14,3 8,5 10,0 14,8 14,8 6 3 16 9 E 1010,2 20 0 0,0
15.10.2018 04:00:00 12,1 8,6 7,8 14,9 14,8 13 7 19 10 E 1010,2 20 0 0,0
15.10.2018 03:00:00 10,8 8,2 7,7 15,0 14,8 2 1 5 3 SW 1010,5 14 0 0,0
15.10.2018 02:00:00 12,3 8,6 9,6 15,0 14,8 3 1 7 4 SE 1010,5 17 0 0,0
15.10.2018 01:00:00 12,9 8,8 8,4 15,1 14,8 3 1 9 5 SE 1010,1 20 0 0,0
15.10.2018 00:00:00 12,4 9,4 8,5 15,1 14,8 1 1 6 3 SW 1009,9 20 0 0,0
14.10.2018 23:00:00 12,0 9,2 9,2 15,1 14,8 2 1 5 3 NW 1009,7 20 0 0,0
14.10.2018 22:00:00 12,6 9,1 9,0 15,2 14,8 3 2 10 6 SSE 1009,4 16 0 0,0
14.10.2018 21:00:00 13,3 9,5 9,9 15,1 14,8 2 1 11 6 SE 1009,0 19 0 0,0
14.10.2018 20:00:00 14,9 10,3 11,9 15,1 14,8 8 4 16 8 ESE 1008,5 20 0 0,0
14.10.2018 19:00:00 20,0 9,8 16,7 15,0 14,8 10 5 25 13 SE 1007,8 20 1 0,0
14.10.2018 18:00:00 22,7 9,8 21,4 14,9 14,8 14 8 35 19 SSE 1007,6 20 55 0,0
14.10.2018 17:00:00 23,7 10,4 24,3 14,8 14,8 21 11 40 22 SSE 1007,3 20 60 0,0
14.10.2018 16:00:00 23,8 10,1 24,6 14,7 14,8 22 12 48 26 S 1007,4 20 58 0,0

tt = temperature
td = dewpoint
tt 5cm = temperature 5cm
tt -20cm = temperature -20cm
tt -100cm = temperature -100cm
ff = wind speed
fx = gusts
dd = wind direction
ppp = reduced air pressure
vv = visibility
sd = sunshine duration
rr = precipitation

Next stations